sat.trackr.live / text

‹ back to catalog

STARLINK-30706

NORAD 57947 · 2023-148N

PAYLOAD ACTIVE UNKNOWN

§ Identity

Operator
Country
US
Launch date
2023-09-25
Launch site
AFWTR
Launch vehicle
Mass (kg)
RCS (m²)

Purposes: comms

External: N2YO · Heavens-Above · Gunter

§ Orbital elements

Epoch: 2026-05-24T22:41:57.304032Z

Period
93.85 min
Inclination
53.1606°
Eccentricity
0.0001127
Mean motion
15.34387153 rev/d
Perigee alt
462.0 km
Apogee alt
463.5 km
Semi-major
6,840.9 km
B*
3.5646e-5
RAAN
29.6369°
Arg perigee
89.2239°
Mean anomaly
270.8893°
Rev number
15,010

§ Raw data

STARLINK-307061 57947U 23148N   26144.94580213  .00000828  00000+0  35646-4 0  99942 57947  53.1606  29.6369 0001127  89.2239 270.8893 15.34387153150108

JSON: /api/v1/satellites/57947 · /tle

For live sub-satellite position, see the globe view (requires WebGL).

§ Visibility from observer

Set your observer location to see the next 7 days of passes ≥ 10°. The values pass through the URL so the page stays shareable.

No JS? Fill the form by hand. The geolocation button needs JavaScript.